Location: La Trinit�
(48.1620°N, 3.4512°W)
Time: 04:01:12
(UTC+00:00)

Cosmos 2315 Rocket - Pass Details

Date: 08 May 2021
Orbit: 965 x 1002 km, 82.9° (Epoch: 13 June)

Event Time Altitude Azimuth Distance (km) Brightness Sun altitude
Exits shadow 21:49:25 - 199° (SSW) 3,076 6.3 -17.3°
Reaches altitude 10° 21:50:16 10° 201° (SSW) 2,764 6.0 -17.4°
Maximum altitude 21:56:35 64° 282° (WNW) 1,106 4.4 -18.0°
Drops below altitude 10° 22:02:57 10° 4° (N) 2,786 7.2 -18.6°
Sets 22:05:32 0° 8° (N) 3,739 7.9 -18.8°
